Grand Rapids, MN

7:58 PM CST on January 18, 2018 (GMT -0600)
Grand Rapids-Itasca County-Newstrom Field

Weather History for KGPZ - January, 2012

Change the Weather History Date:

Thursday, January 12, 2012

  Actual Average Record
Temperature  
Mean Temperature 6 °F -  
Max Temperature 8 °F 16 °F 46 °F (1986)
Min Temperature 3 °F -4 °F -34 °F (1954)
Degree Days  
Heating Degree Days 60    
Moisture  
Dew Point -3 °F    
Average Humidity 70    
Maximum Humidity 78    
Minimum Humidity 61    
Precipitation  
Precipitation 0.00 in - - ()
Sea Level Pressure  
Sea Level Pressure 29.85 in    
Wind  
Wind Speed 17 mph (NNW)    
Max Wind Speed 22 mph    
Max Gust Speed 28 mph    
Visibility 9 miles    
Events      
Averages and records for this station are not official NWS values.
T = Trace of Precipitation, MM = Missing Value Source: NWS Daily Summary

Daily Weather History Graph

Daily Weather History Graph

Search for Another Location

Airport or City:

Trip Planner

Search our weather history database for the weather conditions in past years. The results will help you decide how hot, cold, wet, or windy it might be!

Date:

Astronomy

Jan. 12, 2012 Rise Set
Actual Time 7:58 AM CST 4:46 PM CST
Civil Twilight 7:23 AM CST 5:21 PM CST
Nautical Twilight 6:45 AM CST 5:59 PM CST
Astronomical Twilight 6:08 AM CST 6:36 PM CST
Moon 9:12 PM CST (1/12) 9:24 AM CST (1/12)
Length of Visible Light 9h 58m
Length of Day
8h 48m
Waning Gibbous, 87% of the Moon is Illuminated
Jan 12
Waning Gibbous
Jan 16
Last Quarter
Jan 23
New
Jan 30
First Quarter
Feb 7
Full

Hourly Weather History & Observations

Time (CST) Temp. Windchill Dew Point Humidity Pressure Visibility Wind Dir Wind Speed Gust Speed Precip Events Conditions
12:15 AM 6.8 °F -11.3 °F -2.2 °F 67% 29.85 in 9.0 mi NW 16.1 mph 20.7 mph N/A   Overcast
12:35 AM 6.8 °F -11.8 °F -2.2 °F 67% 29.85 in 7.0 mi NW 17.3 mph - N/A   Overcast
12:55 AM 6.8 °F -10.7 °F -2.2 °F 67% 29.85 in 8.0 mi NW 15.0 mph 19.6 mph N/A   Overcast
1:15 AM 5.0 °F -12.3 °F -2.2 °F 72% 29.85 in 10.0 mi NNW 13.8 mph - N/A   Overcast
1:35 AM 5.0 °F -13.0 °F -2.2 °F 72% 29.85 in 10.0 mi NW 15.0 mph 18.4 mph N/A   Overcast
1:55 AM 5.0 °F -12.3 °F -2.2 °F 72% 29.85 in 10.0 mi NW 13.8 mph - N/A   Overcast
2:15 AM 5.0 °F -12.3 °F -2.2 °F 72% 29.86 in 10.0 mi NW 13.8 mph - N/A   Overcast
2:35 AM 5.0 °F -13.0 °F -2.2 °F 72% 29.87 in 10.0 mi NW 15.0 mph - N/A   Overcast
2:55 AM 5.0 °F -12.3 °F -2.2 °F 72% 29.87 in 10.0 mi NW 13.8 mph - N/A   Overcast
3:15 AM 5.0 °F -13.6 °F -2.2 °F 72% 29.86 in 10.0 mi NNW 16.1 mph 21.9 mph N/A   Overcast
3:35 AM 5.0 °F -13.0 °F -2.2 °F 72% 29.87 in 10.0 mi NW 15.0 mph - N/A   Overcast
3:55 AM 5.0 °F -11.6 °F -2.2 °F 72% 29.87 in 10.0 mi NW 12.7 mph - N/A   Overcast
4:15 AM 5.0 °F -14.7 °F -2.2 °F 72% 29.86 in 10.0 mi NNW 18.4 mph 23.0 mph N/A   Overcast
4:35 AM 3.2 °F -17.6 °F -2.2 °F 78% 29.86 in 10.0 mi NNW 19.6 mph 24.2 mph N/A   Overcast
4:55 AM 3.2 °F -15.3 °F -2.2 °F 78% 29.85 in 10.0 mi NW 15.0 mph - N/A   Overcast
5:15 AM 3.2 °F -16.5 °F -4.0 °F 72% 29.85 in 10.0 mi NW 17.3 mph - N/A   Overcast
5:35 AM 3.2 °F -16.5 °F -2.2 °F 78% 29.86 in 10.0 mi NW 17.3 mph - N/A   Overcast
5:55 AM 3.2 °F -15.3 °F -2.2 °F 78% 29.86 in 10.0 mi NNW 15.0 mph - N/A   Overcast
6:15 AM 3.2 °F -16.5 °F -4.0 °F 72% 29.86 in 10.0 mi NNW 17.3 mph - N/A   Overcast
6:35 AM 3.2 °F -15.9 °F -2.2 °F 78% 29.86 in 10.0 mi NNW 16.1 mph - N/A   Overcast
6:55 AM 3.2 °F -14.6 °F -4.0 °F 72% 29.86 in 7.0 mi NNW 13.8 mph 18.4 mph N/A   Overcast
7:15 AM 3.2 °F -15.3 °F -4.0 °F 72% 29.86 in 10.0 mi North 15.0 mph 19.6 mph N/A   Overcast
7:35 AM 3.2 °F -18.1 °F -4.0 °F 72% 29.85 in 10.0 mi NNW 20.7 mph - N/A   Overcast
7:55 AM 3.2 °F -17.1 °F -2.2 °F 78% 29.86 in 10.0 mi NNW 18.4 mph - N/A   Overcast
8:15 AM 3.2 °F -17.1 °F -4.0 °F 72% 29.85 in 10.0 mi NNW 18.4 mph 25.3 mph N/A   Overcast
8:35 AM 3.2 °F -16.5 °F -4.0 °F 72% 29.85 in 10.0 mi NNW 17.3 mph 23.0 mph N/A   Overcast
8:55 AM 3.2 °F -17.1 °F -4.0 °F 72% 29.85 in 10.0 mi NNW 18.4 mph 25.3 mph N/A   Overcast
9:15 AM 3.2 °F -15.3 °F -4.0 °F 72% 29.86 in 10.0 mi NNW 15.0 mph 23.0 mph N/A   Overcast
9:35 AM 3.2 °F -18.1 °F -4.0 °F 72% 29.85 in 5.0 mi NNW 20.7 mph - N/A   Overcast
9:55 AM 5.0 °F -14.7 °F -4.0 °F 66% 29.86 in 5.0 mi NNW 18.4 mph 25.3 mph N/A   Overcast
10:15 AM 5.0 °F -14.7 °F -4.0 °F 66% 29.86 in 5.0 mi NNW 18.4 mph - N/A   Overcast
10:35 AM 5.0 °F -14.2 °F -5.8 °F 61% 29.86 in 9.0 mi NNW 17.3 mph 26.5 mph N/A   Overcast
10:55 AM 5.0 °F -15.7 °F -5.8 °F 61% 29.86 in 8.0 mi NNW 20.7 mph 27.6 mph N/A   Overcast
11:15 AM 3.2 °F -18.6 °F -5.8 °F 66% 29.85 in 8.0 mi NNW 21.9 mph 27.6 mph N/A   Overcast
11:35 AM 3.2 °F -18.6 °F -5.8 °F 66% 29.84 in 7.0 mi NNW 21.9 mph - N/A   Overcast
11:55 AM 3.2 °F -18.1 °F -5.8 °F 66% 29.83 in 10.0 mi NNW 20.7 mph - N/A   Mostly Cloudy
12:15 PM 5.0 °F -14.7 °F -4.0 °F 66% 29.83 in 9.0 mi NNW 18.4 mph 27.6 mph N/A   Overcast
12:35 PM 5.0 °F -15.2 °F -4.0 °F 66% 29.83 in 5.0 mi NNW 19.6 mph - N/A   Overcast
12:55 PM 6.8 °F -12.9 °F -2.2 °F 67% 29.83 in 6.0 mi NNW 19.6 mph - N/A   Overcast
1:15 PM 6.8 °F -12.4 °F -2.2 °F 67% 29.82 in 5.0 mi NNW 18.4 mph 23.0 mph N/A   Overcast
1:35 PM 6.8 °F -12.9 °F -2.2 °F 67% 29.82 in 7.0 mi NNW 19.6 mph - N/A   Overcast
1:55 PM 6.8 °F -11.8 °F -2.2 °F 67% 29.82 in 10.0 mi NNW 17.3 mph - N/A   Overcast
2:15 PM 8.6 °F -9.5 °F -0.4 °F 67% 29.82 in 8.0 mi NNW 17.3 mph 25.3 mph N/A   Overcast
2:35 PM 8.6 °F -9.5 °F -0.4 °F 67% 29.83 in 9.0 mi NNW 17.3 mph 26.5 mph N/A   Overcast
2:55 PM 8.6 °F -10.5 °F -0.4 °F 67% 29.83 in 10.0 mi NNW 19.6 mph - N/A   Overcast
3:15 PM 8.6 °F -9.5 °F -0.4 °F 67% 29.83 in 10.0 mi NNW 17.3 mph 23.0 mph N/A   Overcast
3:35 PM 8.6 °F -10.5 °F -0.4 °F 67% 29.84 in 10.0 mi NNW 19.6 mph - N/A   Overcast
3:55 PM 8.6 °F -9.5 °F -0.4 °F 67% 29.84 in 10.0 mi NNW 17.3 mph 25.3 mph N/A   Overcast
4:15 PM 8.6 °F -8.3 °F -0.4 °F 67% 29.85 in 10.0 mi NNW 15.0 mph 19.6 mph N/A   Overcast
4:35 PM 8.6 °F -10.5 °F -0.4 °F 67% 29.85 in 10.0 mi NNW 19.6 mph - N/A   Overcast
4:55 PM 8.6 °F -10.0 °F -0.4 °F 67% 29.86 in 10.0 mi North 18.4 mph - N/A   Overcast
5:15 PM 8.6 °F -8.3 °F -0.4 °F 67% 29.87 in 10.0 mi North 15.0 mph - N/A   Overcast
5:35 PM 8.6 °F -8.9 °F 1.4 °F 73% 29.87 in 10.0 mi NNW 16.1 mph 19.6 mph N/A   Overcast
5:55 PM 8.6 °F -10.5 °F -0.4 °F 67% 29.87 in 10.0 mi NNW 19.6 mph 25.3 mph N/A   Overcast
6:15 PM 8.6 °F -10.5 °F -0.4 °F 67% 29.88 in 10.0 mi NNW 19.6 mph 24.2 mph N/A   Overcast
6:35 PM 8.6 °F -10.5 °F -0.4 °F 67% 29.88 in 10.0 mi NNW 19.6 mph 27.6 mph N/A   Overcast
6:55 PM 6.8 °F -12.9 °F -0.4 °F 72% 29.88 in 10.0 mi NNW 19.6 mph 23.0 mph N/A   Overcast
7:15 PM 6.8 °F -12.4 °F -0.4 °F 72% 29.89 in 10.0 mi NNW 18.4 mph - N/A   Overcast
7:35 PM 6.8 °F -13.4 °F -0.4 °F 72% 29.88 in 10.0 mi NNW 20.7 mph - N/A   Overcast
7:55 PM 6.8 °F -12.9 °F -0.4 °F 72% 29.89 in 10.0 mi NNW 19.6 mph - N/A   Overcast
8:15 PM 6.8 °F -11.8 °F -0.4 °F 72% 29.89 in 10.0 mi NNW 17.3 mph 23.0 mph N/A   Overcast
8:35 PM 6.8 °F -11.3 °F -0.4 °F 72% 29.89 in 10.0 mi NNW 16.1 mph - N/A   Overcast
8:55 PM 6.8 °F -10.7 °F -0.4 °F 72% 29.89 in 10.0 mi NNW 15.0 mph - N/A   Overcast
9:15 PM 6.8 °F -10.7 °F -0.4 °F 72% 29.89 in 10.0 mi NNW 15.0 mph - N/A   Overcast
9:35 PM 6.8 °F -11.3 °F -0.4 °F 72% 29.88 in 10.0 mi NNW 16.1 mph - N/A   Overcast
9:55 PM 6.8 °F -11.3 °F -0.4 °F 72% 29.89 in 10.0 mi NNW 16.1 mph 23.0 mph N/A   Overcast
10:15 PM 5.0 °F -12.3 °F -0.4 °F 78% 29.89 in 10.0 mi NNW 13.8 mph 19.6 mph N/A   Overcast
10:35 PM 5.0 °F -13.0 °F -0.4 °F 78% 29.88 in 10.0 mi NNW 15.0 mph - N/A   Overcast
10:55 PM 5.0 °F -13.6 °F -0.4 °F 78% 29.88 in 10.0 mi NNW 16.1 mph - N/A   Overcast
11:15 PM 5.0 °F -14.2 °F -0.4 °F 78% 29.88 in 10.0 mi NNW 17.3 mph - N/A   Overcast
11:35 PM 5.0 °F -12.3 °F -0.4 °F 78% 29.88 in 10.0 mi NNW 13.8 mph - N/A   Overcast
11:55 PM 6.8 °F -10.7 °F -0.4 °F 72% 29.88 in 10.0 mi NNW 15.0 mph 19.6 mph N/A   Overcast